Location: ???????
(52.9498°N, 53.8930°E)
Time: 01:32:54
(UTC+00:00)

Daily predictions for brighter satellites

Satellite Brightness Start Highest point End
(mag) Time Altitude Azimuth Time Altitude Azimuth Time Altitude Azimuth
ERBS 2.1 00:06:31 79° S 00:06:37 81° SSE 00:10:00 10° ENE
USA 32 4.1 00:01:34 10° N 00:06:52 83° E 00:12:08 10° S
NOSS 3-3 (A) 4.0 00:04:04 34° SW 00:06:57 88° NW 00:13:54 10° NE
NOSS 3-3 (C) 4.0 00:04:12 34° SW 00:07:03 88° NW 00:14:00 10° NE
IRIDIUM 103 4.2 00:02:28 10° N 00:07:43 76° W 00:12:53 10° S
ARIANE 5 R/B 2.5 00:02:53 10° N 00:07:55 60° WNW 00:09:46 37° SW
Cosmos 1515 Rocket 4.5 00:08:08 32° WNW 00:08:08 32° WNW 00:12:00 10° N
Cosmos 1763 Rocket 3.7 00:05:09 24° SSW 00:08:23 74° ESE 00:13:40 10° NNE
Cosmos 1536 2.8 00:07:20 10° N 00:11:27 88° E 00:15:31 10° S
CZ-2D R/B 3.5 00:08:26 10° N 00:12:39 65° WNW 00:14:06 39° SW
CZ-3B R/B 2.6 00:11:50 39° W 00:13:17 79° N 00:24:35 10° E
CZ-4C R/B 2.9 00:12:42 42° S 00:13:44 66° WSW 00:17:15 10° NNW
FALCON 9 DEB 4.0 00:13:38 34° S 00:14:08 37° SSE 00:17:21 10° E
Meteor 1-5 Rocket 4.3 00:09:58 10° NNW 00:15:02 45° W 00:18:12 22° SSW
MSX 3.8 00:11:38 10° NNE 00:17:28 87° WNW 00:22:28 14° SSW
ATLAS 2AS CENTAUR R/B 2.8 00:11:10 10° NW 00:18:43 68° SW 00:25:38 10° SSE
ATLAS 5 CENTAUR R/B 3.7 00:16:04 12° NW 00:19:44 26° N 00:24:17 10° ENE
Cosmos 1707 Rocket 3.5 00:18:05 17° S 00:21:25 85° E 00:25:49 10° NNE
Cosmos 540 Rocket 4.1 00:19:25 10° S 00:24:28 56° ESE 00:29:33 10° NNE
Cosmos 2173 Rocket 4.0 00:18:26 10° N 00:24:49 89° ENE 00:31:13 10° S
IRIDIUM 106 4.4 00:20:53 10° NNW 00:25:58 55° W 00:31:04 10° SSW
PAYLOAD A 4.0 00:26:07 10° NNE 00:30:50 72° ESE 00:35:32 10° S
Meteor 1-10 Rocket 4.3 00:26:42 18° SSW 00:31:01 63° WNW 00:36:55 10° N
Cosmos 44 Rocket 4.0 00:27:19 15° SSW 00:31:06 50° SE 00:35:51 10° NE
Meteor 2-6 Rocket 4.5 00:27:51 23° SW 00:31:22 53° WNW 00:37:09 10° N
Cosmos 1733 Rocket 2.9 00:27:30 10° NNW 00:31:53 78° W 00:36:12 10° S
Cosmos 44 3.9 00:30:07 26° W 00:32:05 40° NNW 00:36:39 10° NE
Cosmos 2333 Rocket 4.3 00:29:13 10° SSE 00:33:55 26° ESE 00:38:36 10° NE
ERS-2 2.0 00:30:32 10° S 00:34:12 75° WSW 00:37:53 10° NNW
CZ-4B R/B 1.9 00:32:32 10° SSE 00:35:43 61° ENE 00:39:01 10° N
ADEOS II 3.4 00:31:38 10° N 00:35:45 24° NW 00:37:24 20° W
USA 234 3.4 00:30:04 10° SE 00:36:24 51° SW 00:42:46 10° WNW
IDEFIX/ARIANE 42P 3.0 00:33:20 10° N 00:38:21 45° WNW 00:41:36 21° SW
Cosmos 1743 2.9 00:34:48 10° N 00:38:38 74° ENE 00:42:26 10° SSE
Cosmos 1544 4.0 00:35:19 10° N 00:38:50 50° ENE 00:42:20 10° SSE
RESURS DK-1 4.5 00:36:46 10° NNW 00:40:24 28° NE 00:44:03 10° ESE
CZ-4C R/B 3.0 00:34:11 10° NW 00:41:05 81° NE 00:49:13 10° SE
Cosmos 468 Rocket 4.1 00:39:32 20° SW 00:43:05 59° WNW 00:48:18 10° NNE
Cosmos 1570 Rocket 4.2 00:38:09 10° SSW 00:43:29 76° ESE 00:48:52 10° NNE
Landsat 5 4.0 00:39:47 10° SSW 00:44:00 39° W 00:48:10 10° NNW
CZ-2C R/B 3.1 00:42:17 10° N 00:45:56 44° WNW 00:48:08 21° SW
PSLV R/B 3.4 00:42:10 10° NNE 00:46:24 88° WNW 00:50:36 10° SSW
SL-4 R/B 2.7 00:46:19 21° SW 00:49:16 55° SSE 00:53:58 10° E
COSMOS 2455 3.6 00:47:26 10° NW 00:53:23 54° NE 00:59:17 10° ESE
Cosmos 1862 Rocket 3.5 00:51:53 10° S 00:56:15 86° W 01:00:38 10° N
Cosmos 2016 Rocket 3.9 00:50:28 10° NNW 00:56:36 81° W 01:02:42 10° S
ALOS 3.3 00:52:37 10° NNE 00:57:10 49° E 01:01:42 10° S
Cosmos 2228 Rocket 4.4 00:55:43 19° W 00:57:11 22° WNW 01:00:40 10° NNW
Cosmos 2360 Rocket 2.3 00:52:35 10° SSW 00:58:15 79° ESE 01:03:56 10° NNE
USA 276 3.5 00:58:33 20° SW 00:59:27 23° SSW 01:02:04 10° SSE
H-2A R/B 3.0 00:57:30 10° SSW 01:01:22 29° W 01:05:18 10° NW
Cosmos 2061 Rocket 4.0 00:56:19 10° NNW 01:02:46 75° W 01:09:10 10° S
Cosmos 1697 Rocket 4.4 00:59:13 11° WNW 01:02:54 19° NNW 01:06:56 10° NNE
CZ-2C R/B 2.5 00:58:06 10° NNE 01:03:15 71° WNW 01:08:25 10° SSW
USA 305 2.9 01:00:18 16° W 01:03:42 79° N 01:07:58 10° E
Cosmos 1000 Rocket 4.4 00:58:06 10° SSW 01:04:15 73° WNW 01:10:25 10° N
Cosmos 372 Rocket 4.2 01:01:07 10° NW 01:06:00 44° WSW 01:10:49 10° S
Cosmos 2233 Rocket 4.3 01:00:12 10° N 01:06:21 71° ENE 01:12:29 10° SSE
SAR-Lupe-4 3.5 01:04:08 10° S 01:07:42 69° WSW 01:11:19 10° NNW
USA 306 2.9 01:04:33 14° W 01:08:08 80° N 01:12:24 10° E
Cosmos 1980 Rocket 3.5 01:05:33 13° W 01:09:22 25° NW 01:13:58 10° NNE
Cosmos 1975 3.0 01:06:42 10° N 01:10:45 77° ENE 01:14:44 10° SSE
Cosmos 1844 Rocket 3.0 01:06:12 10° NW 01:11:31 43° WSW 01:16:48 10° S
Intercosmos 25 2.9 01:09:18 10° S 01:12:45 89° ESE 01:15:59 10° N
Cosmos 1689 Rocket 2.3 01:11:09 10° SSE 01:14:08 76° ENE 01:17:08 10° N
Meteor 1-4 Rocket 4.1 01:12:42 15° W 01:14:11 19° WNW 01:16:49 10° NNW
Cosmos 2278 Rocket 2.9 01:10:35 10° NNW 01:16:13 60° NE 01:21:48 10° SE
Cosmos 1864 Rocket 4.5 01:11:46 10° NNW 01:17:59 68° W 01:24:06 10° S
Cosmos 2322 Rocket 2.5 01:12:30 10° SW 01:18:01 52° NW 01:23:37 10° NNE
Cosmos 1725 Rocket 4.0 01:13:01 10° NNW 01:19:10 68° W 01:25:16 10° S
Cosmos 1844 4.0 01:14:36 10° NW 01:19:52 44° WSW 01:25:05 10° S
Cosmos 1484 Rocket 2.9 01:16:46 10° NNE 01:20:47 83° ESE 01:24:48 10° SSW
Meteor 2-9 Rocket 4.1 01:20:09 10° NNW 01:25:40 77° W 01:31:02 10° S
SAR-Lupe-1 4.3 01:23:22 10° S 01:26:49 45° W 01:30:17 10° NNW
Lacrosse 5 2.4 01:22:50 10° WNW 01:27:50 55° N 01:32:49 10° E
Cosmos 1515 3.6 01:25:22 10° S 01:29:09 88° W 01:32:58 10° N
Cosmos 2298 Rocket 4.4 01:24:40 10° NW 01:29:40 42° WSW 01:34:37 10° S
SL-16 R/B 2.9 01:24:55 10° WSW 01:30:13 39° NW 01:35:33 10° NNE
Meteor 1-27 Rocket 4.4 01:24:46 10° SW 01:30:15 38° WNW 01:35:43 10° N
Meteor 1-31 Rocket 2.8 01:29:48 10° NNE 01:33:40 89° WNW 01:37:31 10° SSW
COSMO-SKYMED 1 2.5 01:30:26 10° SSE 01:34:47 79° WSW 01:39:10 10° NNW
Okean 1 3.4 01:31:43 10° SSW 01:35:44 60° WNW 01:39:44 10° N
deb Chang Zheng 4 3.6 01:33:05 10° N 01:37:20 63° WNW 01:41:33 10° SSW
USA 307 2.9 01:33:10 10° WNW 01:37:27 90° ESE 01:41:43 10° ESE
Cosmos 1802 Rocket 4.5 01:32:18 10° NNW 01:37:56 38° W 01:43:36 10° SSW
Cosmos 2237 4.4 01:33:32 10° SW 01:39:10 57° NW 01:44:49 10° NNE
SJ-12 4.4 01:35:03 10° NNE 01:39:12 69° ESE 01:43:19 10° S
USA 308 2.9 01:36:32 10° WNW 01:40:50 89° SSW 01:45:06 10° ESE
USA 267 3.4 01:35:22 10° ENE 01:41:56 77° NNW 01:48:27 10° WSW
Aureole 2 Rocket 2.7 01:39:45 10° NNW 01:42:46 58° ENE 01:45:37 10° SE
Cosmos 1437 Rocket 3.1 01:39:25 10° SW 01:43:04 44° WNW 01:46:50 10° N
ERBS 3.1 01:39:52 10° W 01:43:06 42° N 01:46:20 10° ENE
USA 116 4.4 01:41:02 10° SE 01:44:03 46° ENE 01:47:04 10° N
Cosmos 841 Rocket 4.0 01:40:19 10° SW 01:45:17 42° NW 01:50:19 10° NNE
Cosmos 1782 Rocket 3.6 01:41:08 10° NNW 01:45:35 64° W 01:50:00 10° S
Cosmos 2219 Rocket 2.6 01:40:35 10° SSW 01:46:14 73° ESE 01:51:56 10° NE
